Location: Unspecified
(43.4354°N, 0.0000°E)
Time: 17:50:56
(UTC+00:00)

Courier 1B - Pass Details

Date: 23 June 2019
Orbit: 962 x 1209 km, 28.3° (Epoch: 24 August)

Event Time Altitude Azimuth Distance (km) Brightness Sun altitude
Rises 19:26:33 0° 241° (WSW) 3,854 11.1 1.9°
Reaches altitude 10° 19:29:46 10° 228° (SW) 2,942 10.3 1.4°
Maximum altitude 19:35:23 24° 177° (S) 2,134 9.0 0.6°
Drops below altitude 10° 19:41:13 10° 127° (SE) 3,075 9.5 -0.3°
Enters shadow 19:44:30 - 115° (ESE) 4,012 10.0 -0.8°
Sets 19:44:41 0° 114° (ESE) 4,067 - -0.8°
